2E0RGX-13 Weather Reports


Display with metric or nautical units.
time (UTC)temp
F
wind
direction
speed
MPH
gust
MPH
rain 1hr
in
rain 24hr
in
rain mn
in
humidity
%
barometer
mb
20260507065757 50 44 1.0 3.0 0.00 0.00 0.00 78 1013.0
20260507065253 50 20 2.0 4.0 0.00 0.00 0.00 78 1013.2
20260507064750 49 46 1.0 3.0 0.00 0.00 0.00 79 1013.2
20260507064246 50 73 2.0 2.0 0.00 0.00 0.00 80 1013.1
20260507063742 49 38 2.0 2.0 0.00 0.00 0.00 81 1013.2
20260507063238 48 16 2.0 2.0 0.00 0.00 0.00 82 1013.1
20260507062733 48 23 3.0 3.0 0.00 0.00 0.00 82 1012.8
20260507062229 48 43 1.0 2.0 0.00 0.00 0.00 82 1013.0
20260507061725 48 78 1.0 2.0 0.00 0.00 0.00 82 1012.9
20260507061221 48 15 2.0 4.0 0.00 0.00 0.00 82 1013.0
20260507060717 48 49 2.0 2.0 0.00 0.00 0.00 82 1012.9
20260507060213 48 54 1.0 2.0 0.00 0.00 0.00 82 1012.7
20260507055709 48 31 2.0 3.0 0.00 0.00 0.00 82 1012.9
20260507055206 48 298 1.0 1.0 0.00 0.00 0.00 82 1012.8
20260507054701 48 47 2.0 2.0 0.00 0.00 0.00 82 1012.7
20260507054157 48 10 1.0 2.0 0.00 0.00 0.00 82 1012.6
20260507053653 48 53 1.0 2.0 0.00 0.00 0.00 82 1012.7
20260507053149 48 34 0.0 2.0 0.00 0.00 0.00 82 1012.5
20260507052645 48 32 1.0 2.0 0.00 0.00 0.00 82 1012.7
20260507052141 48 52 1.0 2.0 0.00 0.00 0.00 82 1012.5
20260507051637 48 35 3.0 3.0 0.00 0.00 0.00 81 1012.5
20260507051133 48 28 2.0 2.0 0.00 0.00 0.00 81 1012.5
20260507050629 48 39 2.0 3.0 0.00 0.00 0.00 81 1012.4
20260507050125 48 57 2.0 2.0 0.00 0.00 0.00 81 1012.6
20260507045621 48 35 2.0 3.0 0.00 0.00 0.00 81 1012.6
20260507045117 48 34 1.0 2.0 0.00 0.00 0.00 81 1012.3
20260507044613 48 62 1.0 3.0 0.00 0.00 0.00 81 1012.1
20260507044109 48 40 1.0 2.0 0.00 0.00 0.00 80 1012.3
20260507043605 48 54 2.0 2.0 0.00 0.00 0.00 80 1012.5
20260507043101 48 45 0.0 2.0 0.00 0.00 0.00 80 1012.4
20260507042557 48 56 1.0 1.0 0.00 0.00 0.00 80 1012.4
20260507042053 48 48 2.0 2.0 0.00 0.00 0.00 80 1012.4
20260507041549 48 48 1.0 2.0 0.00 0.00 0.00 80 1012.2
20260507041045 48 68 4.0 4.0 0.00 0.00 0.00 80 1012.5
20260507040541 48 77 1.0 4.0 0.00 0.00 0.00 80 1012.3
20260507040037 48 32 4.0 6.0 0.00 0.00 0.00 81 1012.4
20260507035533 48 62 4.0 6.0 0.00 0.00 0.00 81 1012.4
20260507035030 48 60 2.0 2.0 0.00 0.00 0.00 81 1012.4
20260507034526 48 34 3.0 4.0 0.00 0.00 0.00 82 1012.4
20260507034022 48 50 2.0 3.0 0.00 0.00 0.00 82 1012.2
20260507033518 48 3 2.0 3.0 0.00 0.00 0.00 82 1012.3
20260507033014 48 36 0.0 2.0 0.00 0.00 0.00 83 1012.3
20260507032510 48 16 1.0 4.0 0.00 0.00 0.00 83 1012.1
20260507032006 48 27 2.0 4.0 0.00 0.00 0.00 83 1012.4
20260507031502 48 38 4.0 6.0 0.00 0.00 0.00 84 1012.3
20260507030958 48 19 2.0 2.0 0.00 0.00 0.00 84 1012.1
20260507030454 48 57 0.0 2.0 0.00 0.00 0.00 84 1012.2
20260507025950 48 60 4.0 4.0 0.00 0.00 0.00 84 1012.3
20260507025446 49 62 0.0 2.0 0.00 0.00 0.00 84 1012.4
20260507024942 49 12 3.0 3.0 0.00 0.00 0.00 84 1012.1
20260507024437 49 35 1.0 2.0 0.00 0.00 0.00 84 1012.2
20260507023933 48 58 1.0 2.0 0.00 0.00 0.00 84 1011.9
20260507023429 48 68 1.0 2.0 0.00 0.00 0.00 84 1012.4
20260507022925 48 350 2.0 2.0 0.00 0.00 0.00 84 1012.2
20260507022422 48 336 2.0 3.0 0.00 0.00 0.00 84 1012.2
20260507021917 48 295 0.0 2.0 0.00 0.00 0.00 84 1011.9
20260507021413 48 343 1.0 3.0 0.00 0.00 0.00 85 1012.1
20260507020909 48 310 1.0 1.0 0.00 0.00 0.00 85 1012.0
20260507020405 48 319 0.0 1.0 0.00 0.00 0.00 85 1011.8
20260507015901 48 46 1.0 1.0 0.00 0.00 0.00 84 1011.9
20260507015357 48 64 0.0 0.0 0.00 0.00 0.00 84 1011.9
20260507014853 48 38 1.0 1.0 0.00 0.00 0.00 84 1011.9
20260507014349 48 348 1.0 2.0 0.00 0.00 0.00 84 1012.0
20260507013845 48 260 0.0 1.0 0.00 0.00 0.00 84 1012.0
20260507013341 48 0 0.0 1.0 0.00 0.00 0.00 84 1011.9
20260507012837 48 172 0.0 1.0 0.00 0.00 0.00 84 1012.0
20260507012333 48 274 0.0 1.0 0.00 0.00 0.00 84 1011.9
20260507011829 48 283 1.0 2.0 0.00 0.00 0.00 84 1011.8
20260507011325 48 290 0.0 1.0 0.00 0.00 0.00 84 1012.0
20260507010821 48 295 1.0 2.0 0.00 0.00 0.00 84 1011.9
20260507010317 48 279 0.0 2.0 0.00 0.00 0.00 84 1011.9
20260507005813 48 247 0.0 1.0 0.00 0.00 0.00 84 1012.0
20260507005309 48 55 0.0 1.0 0.00 0.00 0.00 84 1012.0
20260507004805 49 17 2.0 3.0 0.00 0.00 0.00 83 1011.9
20260507004301 49 268 0.0 1.0 0.00 0.00 0.00 83 1012.0
20260507003757 48 335 1.0 2.0 0.00 0.00 0.00 83 1012.2
20260507003253 48 303 1.0 2.0 0.00 0.00 0.00 83 1012.1
20260507002749 48 318 0.0 2.0 0.00 0.00 0.00 83 1011.9
20260507002245 49 356 0.0 1.0 0.00 0.00 0.00 83 1012.0
20260507001741 49 40 0.0 2.0 0.00 0.00 0.00 83 1012.1
20260507001237 49 282 1.0 2.0 0.00 0.00 0.00 83 1011.9
20260507000733 48 276 1.0 2.0 0.00 0.00 0.00 83 1012.0
20260507000229 49 277 1.0 1.0 0.00 0.00 0.00 83 1012.1
20260506235725 49 86 0.0 2.0 0.00 0.00 0.00 83 1012.0
20260506235221 49 292 0.0 1.0 0.00 0.00 0.00 83 1011.8
20260506234718 49 342 0.0 1.0 0.00 0.00 0.00 83 1011.9
20260506234214 49 326 0.0 2.0 0.00 0.00 0.00 82 1012.0
20260506233710 49 345 0.0 1.0 0.00 0.00 0.00 82 1011.8
20260506233206 49 274 0.0 1.0 0.00 0.00 0.00 82 1012.0
20260506232702 49 293 0.0 1.0 0.00 0.00 0.00 82 1011.8
20260506232158 49 277 0.0 1.0 0.00 0.00 0.00 82 1011.9
20260506231654 49 271 0.0 1.0 0.00 0.00 0.00 82 1011.7
20260506231150 49 318 1.0 2.0 0.00 0.00 0.00 82 1011.8
20260506230646 49 5 2.0 2.0 0.00 0.00 0.00 82 1011.8
20260506230142 49 338 1.0 2.0 0.00 0.00 0.00 81 1011.9
20260506225638 49 31 2.0 2.0 0.00 0.00 0.00 81 1011.9
20260506225133 49 355 0.0 2.0 0.00 0.00 0.00 81 1012.0
20260506224629 49 270 0.0 1.0 0.00 0.00 0.00 80 1012.0
20260506224125 49 287 0.0 0.0 0.00 0.00 0.00 80 1011.6
20260506223621 49 312 1.0 1.0 0.00 0.00 0.00 80 1011.7
20260506223117 49 44 2.0 4.0 0.00 0.00 0.00 80 1011.7
20260506222613 49 303 1.0 6.0 0.00 0.00 0.00 80 1011.7
20260506222109 49 266 0.0 2.0 0.00 0.00 0.00 80 1011.8
20260506221605 49 264 2.0 3.0 0.00 0.00 0.00 80 1011.7
20260506221101 49 290 2.0 4.0 0.00 0.00 0.00 79 1011.6
20260506220557 49 293 1.0 3.0 0.00 0.00 0.00 79 1011.9
20260506220053 49 35 0.0 2.0 0.00 0.00 0.00 79 1011.8
20260506215549 49 309 1.0 3.0 0.00 0.00 0.00 79 1011.5
20260506215045 50 306 3.0 6.0 0.00 0.00 0.00 78 1011.6
20260506214542 50 21 4.0 6.0 0.00 0.00 0.00 78 1011.6
20260506214037 50 210 1.0 2.0 0.00 0.00 0.00 77 1011.6
20260506213533 50 339 2.0 3.0 0.00 0.00 0.00 77 1011.5
20260506213029 50 317 1.0 2.0 0.00 0.00 0.00 76 1011.6
20260506212525 50 280 2.0 3.0 0.00 0.00 0.00 76 1011.6
20260506212021 50 339 1.0 4.0 0.00 0.00 0.00 76 1011.6
20260506211517 50 269 0.0 1.0 0.00 0.00 0.00 75 1011.6
20260506211013 50 318 1.0 3.0 0.00 0.00 0.00 74 1011.5
20260506210509 51 278 1.0 3.0 0.00 0.00 0.00 74 1011.6
20260506210005 51 43 1.0 3.0 0.00 0.00 0.00 74 1011.5
20260506205501 51 349 2.0 3.0 0.00 0.00 0.00 73 1011.4
20260506204958 51 299 1.0 6.0 0.00 0.00 0.00 73 1011.5
20260506204454 51 351 1.0 4.0 0.00 0.00 0.00 72 1011.3
20260506203950 51 245 2.0 7.0 0.00 0.00 0.00 72 1011.4
20260506203446 51 252 1.0 7.0 0.00 0.00 0.00 71 1011.3
20260506202942 51 275 2.0 3.0 0.00 0.00 0.00 70 1011.4
20260506202438 51 249 2.0 7.0 0.00 0.00 0.00 69 1011.5
20260506201934 52 300 3.0 7.0 0.00 0.00 0.00 68 1011.3
20260506201430 52 196 2.0 6.0 0.00 0.00 0.00 68 1011.5
20260506200926 52 309 1.0 2.0 0.00 0.00 0.00 67 1011.2
20260506200422 52 298 1.0 4.0 0.00 0.00 0.00 67 1011.3
20260506195918 52 257 1.0 2.0 0.00 0.00 0.00 67 1011.1
20260506195414 52 52 2.0 7.0 0.00 0.00 0.00 67 1010.8
20260506194910 52 305 2.0 3.0 0.00 0.00 0.00 68 1010.9
20260506194406 52 21 0.0 3.0 0.00 0.00 0.00 68 1010.8
20260506193902 53 270 4.0 6.0 0.00 0.00 0.00 67 1010.8
20260506193358 53 246 1.0 4.0 0.00 0.00 0.00 66 1010.6
20260506192853 53 317 2.0 2.0 0.00 0.00 0.00 65 1010.6
20260506192349 53 289 0.0 3.0 0.00 0.00 0.00 64 1010.7
20260506191845 53 51 2.0 8.0 0.00 0.00 0.00 64 1010.7
20260506191341 53 26 5.0 9.0 0.00 0.00 0.00 63 1010.6
20260506190837 53 13 1.0 6.0 0.00 0.00 0.00 63 1010.8
20260506190333 53 59 3.0 7.0 0.00 0.00 0.00 63 1010.6
20260506185829 53 173 0.0 1.0 0.00 0.00 0.00 63 1010.5
20260506185325 53 354 2.0 7.0 0.00 0.00 0.00 62 1010.4
20260506184822 54 249 0.0 1.0 0.00 0.00 0.00 62 1010.4
20260506184318 54 313 1.0 6.0 0.00 0.00 0.00 62 1010.5
20260506183813 54 260 1.0 3.0 0.00 0.00 0.00 62 1010.2
20260506183309 54 338 3.0 7.0 0.00 0.00 0.00 62 1010.2
20260506182805 54 356 2.0 4.0 0.00 0.00 0.00 61 1010.3
20260506182301 54 14 3.0 7.0 0.00 0.00 0.00 60 1010.3
20260506181757 54 0 4.0 6.0 0.00 0.00 0.00 61 1010.1
20260506181253 54 32 2.0 4.0 0.00 0.00 0.00 61 1010.0
20260506180749 54 7 4.0 10.0 0.00 0.00 0.00 62 1010.1
20260506180245 54 60 1.0 8.0 0.00 0.00 0.00 62 1010.1
20260506175741 54 349 2.0 7.0 0.00 0.00 0.00 62 1009.8
20260506175237 54 15 9.0 10.0 0.00 0.00 0.00 61 1009.8
20260506174734 54 2 3.0 7.0 0.00 0.00 0.00 61 1009.7
20260506174230 54 38 5.0 7.0 0.00 0.00 0.00 60 1009.8
20260506173726 54 13 6.0 8.0 0.00 0.00 0.00 60 1009.7
20260506173222 54 41 3.0 6.0 0.00 0.00 0.00 60 1009.7
20260506172718 54 78 2.0 4.0 0.00 0.00 0.00 59 1009.5
20260506172214 55 34 5.0 8.0 0.00 0.00 0.00 58 1009.6
20260506171710 55 21 2.0 3.0 0.00 0.00 0.00 56 1009.6
20260506171206 55 38 1.0 2.0 0.00 0.00 0.00 56 1009.9
20260506170702 55 268 1.0 2.0 0.00 0.00 0.00 56 1009.6
20260506170158 55 265 2.0 7.0 0.00 0.00 0.00 56 1009.6
20260506165654 55 359 1.0 3.0 0.00 0.00 0.00 56 1009.6
20260506165150 55 351 2.0 4.0 0.00 0.00 0.00 56 1009.5
20260506164646 55 81 2.0 6.0 0.00 0.00 0.00 56 1009.6
20260506164142 55 318 3.0 8.0 0.00 0.00 0.00 56 1009.5
20260506163638 55 277 4.0 6.0 0.00 0.00 0.00 56 1009.5
20260506163134 55 267 1.0 3.0 0.00 0.00 0.00 56 1009.6
20260506162630 55 302 2.0 8.0 0.00 0.00 0.00 57 1009.6
20260506162126 55 337 2.0 4.0 0.00 0.00 0.00 57 1009.7
20260506161622 56 12 3.0 7.0 0.00 0.00 0.00 56 1009.6
20260506161118 56 324 1.0 7.0 0.00 0.00 0.00 57 1009.4
20260506160614 55 348 4.0 7.0 0.00 0.00 0.00 57 1009.6
20260506160110 55 323 2.0 6.0 0.00 0.00 0.00 57 1010.0
20260506155606 56 328 3.0 3.0 0.00 0.00 0.00 56 1009.7
20260506155101 56 315 2.0 6.0 0.00 0.00 0.00 56 1009.6
20260506154557 55 285 1.0 3.0 0.00 0.00 0.00 56 1009.7
20260506154053 56 2 6.0 9.0 0.00 0.00 0.00 56 1009.7
20260506153549 56 334 4.0 4.0 0.00 0.00 0.00 56 1009.6
20260506153045 56 304 0.0 2.0 0.00 0.00 0.00 57 1009.7
20260506152541 56 105 2.0 4.0 0.00 0.00 0.00 58 1009.8
20260506152037 56 46 4.0 7.0 0.00 0.00 0.00 57 1009.7
20260506151533 56 234 0.0 3.0 0.00 0.00 0.00 57 1009.7
20260506151029 56 71 2.0 8.0 0.00 0.00 0.00 58 1009.9
20260506150525 56 239 1.0 4.0 0.00 0.00 0.00 58 1009.9
20260506150021 56 281 4.0 6.0 0.00 0.00 0.00 58 1009.8
20260506145517 56 321 2.0 4.0 0.00 0.00 0.00 59 1009.7
20260506145014 56 257 0.0 2.0 0.00 0.00 0.00 60 1009.6
20260506144510 56 319 1.0 4.0 0.00 0.00 0.00 60 1009.8
20260506144006 55 357 1.0 3.0 0.00 0.00 0.00 61 1009.9
20260506143502 55 255 2.0 6.0 0.00 0.00 0.00 61 1009.6
20260506142958 56 273 2.0 4.0 0.00 0.00 0.00 61 1009.5
20260506142454 55 294 2.0 3.0 0.00 0.00 0.00 62 1009.8
20260506141950 54 19 2.0 9.0 0.00 0.00 0.00 63 1009.8
20260506141446 55 31 4.0 7.0 0.00 0.00 0.00 63 1009.8
20260506140941 54 292 1.0 2.0 0.00 0.00 0.00 64 1009.9
20260506140437 54 101 0.0 3.0 0.00 0.00 0.00 66 1009.8
20260506135933 54 349 4.0 7.0 0.00 0.00 0.00 66 1010.0
20260506135429 53 272 1.0 3.0 0.00 0.00 0.00 67 1009.8
20260506134926 54 337 2.0 3.0 0.00 0.00 0.00 67 1010.0
20260506134421 54 320 2.0 4.0 0.00 0.00 0.00 68 1009.7
20260506133918 53 344 3.0 6.0 0.00 0.00 0.00 66 1009.9
20260506133413 53 0 3.0 8.0 0.00 0.00 0.00 66 1010.1
20260506132909 54 312 3.0 7.0 0.00 0.00 0.00 65 1010.0
20260506132405 54 142 2.0 8.0 0.00 0.00 0.00 65 1010.0
20260506131901 54 2 6.0 9.0 0.00 0.00 0.00 64 1009.7
20260506131357 55 28 1.0 7.0 0.00 0.00 0.00 63 1010.1
20260506130853 55 353 3.0 4.0 0.00 0.00 0.00 62 1010.0
20260506130349 55 322 2.0 4.0 0.00 0.00 0.00 63 1009.9
20260506125845 55 331 2.0 7.0 0.00 0.00 0.00 62 1009.8
20260506125341 54 261 2.0 3.0 0.00 0.00 0.00 64 1010.0
20260506124837 54 46 4.0 8.0 0.00 0.00 0.00 63 1010.0
20260506124333 54 326 7.0 10.0 0.00 0.00 0.00 64 1009.9
20260506123829 54 278 3.0 9.0 0.00 0.00 0.00 63 1009.8
20260506123325 55 242 5.0 10.0 0.00 0.00 0.00 62 1009.8
20260506122821 55 62 3.0 11.0 0.00 0.00 0.00 61 1009.8
20260506122317 57 238 5.0 14.0 0.00 0.00 0.00 59 1009.9
20260506121813 58 340 4.0 7.0 0.00 0.00 0.00 55 1009.7
20260506121309 56 307 2.0 7.0 0.00 0.00 0.00 57 1009.6
20260506120805 56 23 2.0 7.0 0.00 0.00 0.00 59 1009.8
20260506120301 56 284 2.0 4.0 0.00 0.00 0.00 58 1009.8
20260506115757 55 306 4.0 7.0 0.00 0.00 0.00 61 1009.9
20260506115253 55 324 3.0 6.0 0.00 0.00 0.00 62 1010.0
20260506114749 56 265 2.0 6.0 0.00 0.00 0.00 60 1009.8
20260506114245 56 301 2.0 6.0 0.00 0.00 0.00 60 1009.8
20260506113741 54 29 6.0 14.0 0.00 0.00 0.00 61 1009.8
20260506113237 54 354 6.0 8.0 0.00 0.00 0.00 62 1009.9
20260506112733 54 355 1.0 11.0 0.00 0.00 0.00 63 1009.9
20260506112229 54 344 8.0 13.0 0.00 0.00 0.00 61 1009.9
20260506111725 55 323 2.0 11.0 0.00 0.00 0.00 62 1009.9
20260506111221 55 23 1.0 7.0 0.00 0.00 0.00 61 1009.9
20260506110717 55 15 3.0 7.0 0.00 0.00 0.00 60 1009.6
20260506110213 54 268 2.0 9.0 0.00 0.00 0.00 62 1009.8
20260506105709 54 326 1.0 3.0 0.00 0.00 0.00 61 1009.8
20260506105205 55 13 2.0 4.0 0.00 0.00 0.00 61 1009.7
20260506104701 54 325 2.0 6.0 0.00 0.00 0.00 60 1010.2
20260506104157 56 57 6.0 9.0 0.00 0.00 0.00 57 1009.9
20260506103653 55 259 4.0 4.0 0.00 0.00 0.00 58 1009.9
20260506103149 54 11 4.0 13.0 0.00 0.00 0.00 59 1009.8
20260506102645 54 29 2.0 8.0 0.00 0.00 0.00 59 1009.8
20260506102141 54 281 4.0 8.0 0.00 0.00 0.00 58 1010.1
20260506101637 53 316 3.0 10.0 0.00 0.00 0.00 61 1009.9
20260506101133 53 70 3.0 7.0 0.00 0.00 0.00 60 1009.9
20260506100629 53 258 2.0 6.0 0.00 0.00 0.00 61 1009.8
20260506100125 53 25 6.0 13.0 0.00 0.00 0.00 62 1010.0
20260506095621 53 169 0.0 6.0 0.00 0.00 0.00 61 1010.0
20260506095118 53 251 1.0 9.0 0.00 0.00 0.00 60 1010.0
20260506094614 53 273 2.0 9.0 0.00 0.00 0.00 59 1010.1
20260506094110 54 309 2.0 3.0 0.00 0.00 0.00 60 1010.1
20260506093606 54 233 2.0 8.0 0.00 0.00 0.00 60 1010.1
20260506093102 53 47 8.0 11.0 0.00 0.00 0.00 60 1010.0
20260506092558 53 9 3.0 4.0 0.00 0.00 0.00 60 1010.1
20260506092054 53 157 2.0 6.0 0.00 0.00 0.00 59 1009.8
20260506091550 53 175 2.0 9.0 0.00 0.00 0.00 61 1009.8
20260506091046 53 338 6.0 8.0 0.00 0.00 0.00 60 1009.8
20260506090542 53 137 5.0 9.0 0.00 0.00 0.00 62 1009.9
20260506090038 53 21 5.0 7.0 0.00 0.00 0.00 62 1009.8
20260506085534 53 295 1.0 10.0 0.00 0.00 0.00 63 1009.9
20260506085030 52 64 1.0 6.0 0.00 0.00 0.00 65 1009.6
20260506084526 52 314 6.0 10.0 0.00 0.00 0.00 64 1009.7
20260506084022 52 19 8.0 9.0 0.00 0.00 0.00 65 1010.0
20260506083518 51 20 2.0 8.0 0.00 0.00 0.00 66 1009.9
20260506083014 51 67 5.0 8.0 0.00 0.00 0.00 67 1009.6
20260506082510 51 32 6.0 9.0 0.00 0.00 0.00 68 1009.7
20260506082006 51 20 4.0 6.0 0.00 0.00 0.00 67 1009.8
20260506081502 51 288 2.0 10.0 0.00 0.00 0.00 67 1009.7
20260506080958 52 258 1.0 4.0 0.00 0.00 0.00 68 1009.7
20260506080454 51 289 2.0 6.0 0.00 0.00 0.00 69 1009.7
20260506073430 50 41 5.0 11.0 0.00 0.00 0.00 70 1009.9
20260506072926 50 31 6.0 8.0 0.00 0.00 0.00 70 1009.5
20260506072422 50 341 4.0 11.0 0.00 0.00 0.00 71 1009.9
20260506071918 50 23 6.0 8.0 0.00 0.00 0.00 72 1009.8
20260506071414 50 304 2.0 9.0 0.00 0.00 0.00 72 1009.6
20260506070910 49 331 5.0 13.0 0.00 0.00 0.00 72 1009.7
20260506070406 50 25 4.0 6.0 0.00 0.00 0.00 72 1009.6